owner,sensor,date,latitude,longitude,vertical_datum,sea_water_practical_salinity,qcFlag 
DISL,ioos:station:DISL:DISL:1,2008-02-01T00:00:00Z,30.2513,-88.0778,7.35,31.33,1111122 
DISL,ioos:station:DISL:DISL:1,2008-02-01T00:30:00Z,30.2513,-88.0778,7.34,27.65,1111122 
DISL,ioos:station:DISL:DISL:1,2008-02-01T01:00:00Z,30.2513,-88.0778,7.39,30.16,1111122 
DISL,ioos:station:DISL:DISL:1,2008-02-01T01:30:00Z,30.2513,-88.0778,7.23,28.89,1111122 
DISL,ioos:station:DISL:DISL:1,2008-02-01T02:00:00Z,30.2513,-88.0778,7.31,29.09,1111122 
DISL,ioos:station:DISL:DISL:1,2008-02-01T02:30:00Z,30.2513,-88.0778,7.43,29.57,1111122 
DISL,ioos:station:DISL:DISL:1,2008-02-01T03:00:00Z,30.2513,-88.0778,7.52,25.12,1111122 
DISL,ioos:station:DISL:DISL:1,2008-02-01T03:30:00Z,30.2513,-88.0778,7.19,24.75,1111122 
DISL,ioos:station:DISL:DISL:1,2008-02-01T04:00:00Z,30.2513,-88.0778,7.21,26.04,1111122 
DISL,ioos:station:DISL:DISL:1,2008-02-01T04:30:00Z,30.2513,-88.0778,7.04,26.18,1111122 
DISL,ioos:station:DISL:DISL:1,2008-02-01T05:00:00Z,30.2513,-88.0778,6.909,25.08,1111122 
DISL,ioos:station:DISL:DISL:1,2008-02-01T05:30:00Z,30.2513,-88.0778,6.714,24.67,1111122 
DISL,ioos:station:DISL:DISL:1,2008-02-01T06:00:00Z,30.2513,-88.0778,6.6,24.65,1111122 
DISL,ioos:station:DISL:DISL:1,2008-02-01T06:30:00Z,30.2513,-88.0778,6.59,25.4,1111122 
DISL,ioos:station:DISL:DISL:1,2008-02-01T07:00:00Z,30.2513,-88.0778,6.357,25.43,1111122 
DISL,ioos:station:DISL:DISL:1,2008-02-01T07:30:00Z,30.2513,-88.0778,6.174,26.75,1111122 
DISL,ioos:station:DISL:DISL:1,2008-02-01T08:00:00Z,30.2513,-88.0778,6.215,27.38,1111122 
DISL,ioos:station:DISL:DISL:1,2008-02-01T08:30:00Z,30.2513,-88.0778,6.149,27.98,1111122 
DISL,ioos:station:DISL:DISL:1,2008-02-01T09:00:00Z,30.2513,-88.0778,5.908,27.89,1111122 
DISL,ioos:station:DISL:DISL:1,2008-02-01T09:30:00Z,30.2513,-88.0778,5.779,27.82,1111122 
DISL,ioos:station:DISL:DISL:1,2008-02-01T10:00:00Z,30.2513,-88.0778,5.726,27.74,1111122 
DISL,ioos:station:DISL:DISL:1,2008-02-01T10:30:00Z,30.2513,-88.0778,5.625,27.68,1111122 
DISL,ioos:station:DISL:DISL:1,2008-02-01T11:00:00Z,30.2513,-88.0778,5.563,27.65,1111122 
DISL,ioos:station:DISL:DISL:1,2008-02-01T11:30:00Z,30.2513,-88.0778,5.517,27.53,1111122 
DISL,ioos:station:DISL:DISL:1,2008-02-01T12:00:00Z,30.2513,-88.0778,5.484,27.51,1111122 
DISL,ioos:station:DISL:DISL:1,2008-02-01T12:30:00Z,30.2513,-88.0778,5.48,27.72,1111122 
DISL,ioos:station:DISL:DISL:1,2008-02-01T13:00:00Z,30.2513,-88.0778,5.384,27.63,1111122 
DISL,ioos:station:DISL:DISL:1,2008-02-01T13:30:00Z,30.2513,-88.0778,5.428,27.7,1111122 
DISL,ioos:station:DISL:DISL:1,2008-02-01T14:00:00Z,30.2513,-88.0778,5.471,26.22,1111122 
DISL,ioos:station:DISL:DISL:1,2008-02-01T14:30:00Z,30.2513,-88.0778,5.466,25.83,1111122 
DISL,ioos:station:DISL:DISL:1,2008-02-01T15:00:00Z,30.2513,-88.0778,5.54,25.23,1111122 
DISL,ioos:station:DISL:DISL:1,2008-02-01T15:30:00Z,30.2513,-88.0778,5.528,25.03,1111122 
DISL,ioos:station:DISL:DISL:1,2008-02-01T16:00:00Z,30.2513,-88.0778,5.481,25.86,1111122 
DISL,ioos:station:DISL:DISL:1,2008-02-01T16:30:00Z,30.2513,-88.0778,5.561,25.87,1111122 
DISL,ioos:station:DISL:DISL:1,2008-02-01T17:00:00Z,30.2513,-88.0778,5.67,26.02,1111122 
DISL,ioos:station:DISL:DISL:1,2008-02-01T17:30:00Z,30.2513,-88.0778,5.732,26.66,1111122 
DISL,ioos:station:DISL:DISL:1,2008-02-01T18:00:00Z,30.2513,-88.0778,5.81,26.24,1111122 
DISL,ioos:station:DISL:DISL:1,2008-02-01T18:30:00Z,30.2513,-88.0778,5.924,26.11,1111122 
DISL,ioos:station:DISL:DISL:1,2008-02-01T19:00:00Z,30.2513,-88.0778,5.969,26.51,1111122 
DISL,ioos:station:DISL:DISL:1,2008-02-01T19:30:00Z,30.2513,-88.0778,6.061,26.26,1111122 
DISL,ioos:station:DISL:DISL:1,2008-02-01T20:00:00Z,30.2513,-88.0778,6.242,25.57,1111122 
DISL,ioos:station:DISL:DISL:1,2008-02-01T20:30:00Z,30.2513,-88.0778,6.308,25.19,1111122 
DISL,ioos:station:DISL:DISL:1,2008-02-01T21:00:00Z,30.2513,-88.0778,6.392,24.86,1111122 
DISL,ioos:station:DISL:DISL:1,2008-02-01T21:30:00Z,30.2513,-88.0778,6.443,25.5,1111122 
DISL,ioos:station:DISL:DISL:1,2008-02-01T22:00:00Z,30.2513,-88.0778,6.506,26.3,1111122 
DISL,ioos:station:DISL:DISL:1,2008-02-01T22:30:00Z,30.2513,-88.0778,6.576,27.35,1111122 
DISL,ioos:station:DISL:DISL:1,2008-02-01T23:00:00Z,30.2513,-88.0778,6.681,27.46,1111122 
DISL,ioos:station:DISL:DISL:1,2008-02-01T23:30:00Z,30.2513,-88.0778,6.709,27.4,1111122 
DISL,ioos:station:DISL:DISL:1,2008-02-02T00:00:00Z,30.2513,-88.0778,6.722,27.08,1111122 
DISL,ioos:station:DISL:DISL:1,2008-02-02T00:30:00Z,30.2513,-88.0778,6.771,27.24,1111122 
DISL,ioos:station:DISL:DISL:1,2008-02-02T01:00:00Z,30.2513,-88.0778,6.734,27.33,1111122 
DISL,ioos:station:DISL:DISL:1,2008-02-02T01:30:00Z,30.2513,-88.0778,6.758,25.43,1111122 
DISL,ioos:station:DISL:DISL:1,2008-02-02T02:00:00Z,30.2513,-88.0778,6.718,25.02,1111122 
DISL,ioos:station:DISL:DISL:1,2008-02-02T02:30:00Z,30.2513,-88.0778,6.647,24.96,1111122 
DISL,ioos:station:DISL:DISL:1,2008-02-02T03:00:00Z,30.2513,-88.0778,6.585,24.96,1111122 
DISL,ioos:station:DISL:DISL:1,2008-02-02T03:30:00Z,30.2513,-88.0778,6.547,24.97,1111122 
DISL,ioos:station:DISL:DISL:1,2008-02-02T04:00:00Z,30.2513,-88.0778,6.499,24.73,1111122 
DISL,ioos:station:DISL:DISL:1,2008-02-02T04:30:00Z,30.2513,-88.0778,6.438,24.51,1111122 
DISL,ioos:station:DISL:DISL:1,2008-02-02T05:00:00Z,30.2513,-88.0778,6.317,24.51,1111122 
DISL,ioos:station:DISL:DISL:1,2008-02-02T05:30:00Z,30.2513,-88.0778,6.22,24.58,1111122 
DISL,ioos:station:DISL:DISL:1,2008-02-02T06:00:00Z,30.2513,-88.0778,6.102,24.63,1111122 
DISL,ioos:station:DISL:DISL:1,2008-02-02T06:30:00Z,30.2513,-88.0778,6.054,24.67,1111122 
DISL,ioos:station:DISL:DISL:1,2008-02-02T07:00:00Z,30.2513,-88.0778,5.954,24.72,1111122 
DISL,ioos:station:DISL:DISL:1,2008-02-02T07:30:00Z,30.2513,-88.0778,5.902,24.84,1111122 
DISL,ioos:station:DISL:DISL:1,2008-02-02T08:00:00Z,30.2513,-88.0778,5.779,24.88,1111122 
DISL,ioos:station:DISL:DISL:1,2008-02-02T08:30:00Z,30.2513,-88.0778,5.703,24.93,1111122 
DISL,ioos:station:DISL:DISL:1,2008-02-02T09:00:00Z,30.2513,-88.0778,5.641,24.95,1111122 
DISL,ioos:station:DISL:DISL:1,2008-02-02T09:30:00Z,30.2513,-88.0778,5.53,25.03,1111122 
DISL,ioos:station:DISL:DISL:1,2008-02-02T10:00:00Z,30.2513,-88.0778,5.464,24.99,1111122 
DISL,ioos:station:DISL:DISL:1,2008-02-02T10:30:00Z,30.2513,-88.0778,5.37,24.83,1111122 
DISL,ioos:station:DISL:DISL:1,2008-02-02T11:00:00Z,30.2513,-88.0778,5.398,24.49,1111122 
DISL,ioos:station:DISL:DISL:1,2008-02-02T11:30:00Z,30.2513,-88.0778,5.341,24.04,1111122 
DISL,ioos:station:DISL:DISL:1,2008-02-02T12:00:00Z,30.2513,-88.0778,5.355,23.7,1111122 
DISL,ioos:station:DISL:DISL:1,2008-02-02T12:30:00Z,30.2513,-88.0778,5.313,23.5,1111122 
DISL,ioos:station:DISL:DISL:1,2008-02-02T13:00:00Z,30.2513,-88.0778,5.257,23.27,1111122 
DISL,ioos:station:DISL:DISL:1,2008-02-02T13:30:00Z,30.2513,-88.0778,5.267,23.13,1111122 
DISL,ioos:station:DISL:DISL:1,2008-02-02T14:00:00Z,30.2513,-88.0778,5.261,23.08,1111122 
DISL,ioos:station:DISL:DISL:1,2008-02-02T14:30:00Z,30.2513,-88.0778,5.387,23.03,1111122 
DISL,ioos:station:DISL:DISL:1,2008-02-02T15:00:00Z,30.2513,-88.0778,5.39,23.05,1111122 
DISL,ioos:station:DISL:DISL:1,2008-02-02T15:30:00Z,30.2513,-88.0778,5.442,24.34,1111122 
DISL,ioos:station:DISL:DISL:1,2008-02-02T16:00:00Z,30.2513,-88.0778,5.389,26.03,1111122 
DISL,ioos:station:DISL:DISL:1,2008-02-02T16:30:00Z,30.2513,-88.0778,5.476,26.64,1111122 
DISL,ioos:station:DISL:DISL:1,2008-02-02T17:00:00Z,30.2513,-88.0778,5.557,26.14,1111122 
DISL,ioos:station:DISL:DISL:1,2008-02-02T17:30:00Z,30.2513,-88.0778,5.655,26.16,1111122 
DISL,ioos:station:DISL:DISL:1,2008-02-02T18:00:00Z,30.2513,-88.0778,5.77,24.98,1111122 
DISL,ioos:station:DISL:DISL:1,2008-02-02T18:30:00Z,30.2513,-88.0778,5.856,25.01,1111122 
DISL,ioos:station:DISL:DISL:1,2008-02-02T19:00:00Z,30.2513,-88.0778,5.943,23.98,1111122 
DISL,ioos:station:DISL:DISL:1,2008-02-02T19:30:00Z,30.2513,-88.0778,6.015,25.44,1111122 
DISL,ioos:station:DISL:DISL:1,2008-02-02T20:00:00Z,30.2513,-88.0778,6.087,26.08,1111122 
DISL,ioos:station:DISL:DISL:1,2008-02-02T20:30:00Z,30.2513,-88.0778,6.223,26.4,1111122 
DISL,ioos:station:DISL:DISL:1,2008-02-02T21:00:00Z,30.2513,-88.0778,6.31,26.08,1111122 
DISL,ioos:station:DISL:DISL:1,2008-02-02T21:30:00Z,30.2513,-88.0778,6.413,26.31,1111122 
DISL,ioos:station:DISL:DISL:1,2008-02-02T22:00:00Z,30.2513,-88.0778,6.456,26.53,1111122 
DISL,ioos:station:DISL:DISL:1,2008-02-02T22:30:00Z,30.2513,-88.0778,6.588,26.0,1111122 
DISL,ioos:station:DISL:DISL:1,2008-02-02T23:00:00Z,30.2513,-88.0778,6.638,27.12,1111122 
DISL,ioos:station:DISL:DISL:1,2008-02-02T23:30:00Z,30.2513,-88.0778,6.678,27.48,1111122 
DISL,ioos:station:DISL:DISL:1,2008-02-03T00:00:00Z,30.2513,-88.0778,6.728,28.8,1111122 
DISL,ioos:station:DISL:DISL:1,2008-02-03T00:30:00Z,30.2513,-88.0778,6.777,30.52,1111122 
DISL,ioos:station:DISL:DISL:1,2008-02-03T01:00:00Z,30.2513,-88.0778,6.772,29.41,1111122 
DISL,ioos:station:DISL:DISL:1,2008-02-03T01:30:00Z,30.2513,-88.0778,6.801,25.32,1111122 
DISL,ioos:station:DISL:DISL:1,2008-02-03T02:00:00Z,30.2513,-88.0778,6.721,24.72,1111122 
DISL,ioos:station:DISL:DISL:1,2008-02-03T02:30:00Z,30.2513,-88.0778,6.669,24.63,1111122 
DISL,ioos:station:DISL:DISL:1,2008-02-03T03:00:00Z,30.2513,-88.0778,6.625,24.73,1111122 
DISL,ioos:station:DISL:DISL:1,2008-02-03T03:30:00Z,30.2513,-88.0778,6.587,24.81,1111122 
DISL,ioos:station:DISL:DISL:1,2008-02-03T04:00:00Z,30.2513,-88.0778,6.462,24.31,1111122 
DISL,ioos:station:DISL:DISL:1,2008-02-03T04:30:00Z,30.2513,-88.0778,6.353,23.54,1111122 
DISL,ioos:station:DISL:DISL:1,2008-02-03T05:00:00Z,30.2513,-88.0778,6.307,23.24,1111122 
DISL,ioos:station:DISL:DISL:1,2008-02-03T05:30:00Z,30.2513,-88.0778,6.156,23.04,1111122 
DISL,ioos:station:DISL:DISL:1,2008-02-03T06:00:00Z,30.2513,-88.0778,6.074,23.05,1111122 
DISL,ioos:station:DISL:DISL:1,2008-02-03T06:30:00Z,30.2513,-88.0778,5.986,23.18,1111122 
DISL,ioos:station:DISL:DISL:1,2008-02-03T07:00:00Z,30.2513,-88.0778,5.832,23.23,1111122 
DISL,ioos:station:DISL:DISL:1,2008-02-03T07:30:00Z,30.2513,-88.0778,5.714,23.29,1111122 
DISL,ioos:station:DISL:DISL:1,2008-02-03T08:00:00Z,30.2513,-88.0778,5.599,23.57,1111122 
DISL,ioos:station:DISL:DISL:1,2008-02-03T08:30:00Z,30.2513,-88.0778,5.518,23.9,1111122 
DISL,ioos:station:DISL:DISL:1,2008-02-03T09:00:00Z,30.2513,-88.0778,5.467,23.93,1111122 
DISL,ioos:station:DISL:DISL:1,2008-02-03T09:30:00Z,30.2513,-88.0778,5.388,23.83,1111122 
DISL,ioos:station:DISL:DISL:1,2008-02-03T10:00:00Z,30.2513,-88.0778,5.286,23.33,1111122 
DISL,ioos:station:DISL:DISL:1,2008-02-03T10:30:00Z,30.2513,-88.0778,5.199,23.15,1111122 
DISL,ioos:station:DISL:DISL:1,2008-02-03T11:00:00Z,30.2513,-88.0778,5.171,23.06,1111122 
DISL,ioos:station:DISL:DISL:1,2008-02-03T11:30:00Z,30.2513,-88.0778,5.11,23.04,1111122 
DISL,ioos:station:DISL:DISL:1,2008-02-03T12:00:00Z,30.2513,-88.0778,5.078,22.82,1111122 
DISL,ioos:station:DISL:DISL:1,2008-02-03T12:30:00Z,30.2513,-88.0778,5.065,22.74,1111122 
DISL,ioos:station:DISL:DISL:1,2008-02-03T13:00:00Z,30.2513,-88.0778,5.078,22.89,1111122 
DISL,ioos:station:DISL:DISL:1,2008-02-03T13:30:00Z,30.2513,-88.0778,5.098,23.02,1111122 
DISL,ioos:station:DISL:DISL:1,2008-02-03T14:00:00Z,30.2513,-88.0778,5.157,22.93,1111122 
DISL,ioos:station:DISL:DISL:1,2008-02-03T14:30:00Z,30.2513,-88.0778,5.153,23.23,1111122 
DISL,ioos:station:DISL:DISL:1,2008-02-03T15:00:00Z,30.2513,-88.0778,5.225,23.22,1111122 
DISL,ioos:station:DISL:DISL:1,2008-02-03T15:30:00Z,30.2513,-88.0778,5.265,23.19,1111122 
DISL,ioos:station:DISL:DISL:1,2008-02-03T16:00:00Z,30.2513,-88.0778,5.304,24.56,1111122 
DISL,ioos:station:DISL:DISL:1,2008-02-03T16:30:00Z,30.2513,-88.0778,5.394,24.74,1111122 
DISL,ioos:station:DISL:DISL:1,2008-02-03T17:00:00Z,30.2513,-88.0778,5.464,25.12,1111122 
DISL,ioos:station:DISL:DISL:1,2008-02-03T17:30:00Z,30.2513,-88.0778,5.556,24.93,1111122 
DISL,ioos:station:DISL:DISL:1,2008-02-03T18:00:00Z,30.2513,-88.0778,5.666,24.04,1111122 
DISL,ioos:station:DISL:DISL:1,2008-02-03T18:30:00Z,30.2513,-88.0778,5.783,23.49,1111122 
DISL,ioos:station:DISL:DISL:1,2008-02-03T19:00:00Z,30.2513,-88.0778,5.806,23.08,1111122 
DISL,ioos:station:DISL:DISL:1,2008-02-03T19:30:00Z,30.2513,-88.0778,6.004,23.34,1111122 
DISL,ioos:station:DISL:DISL:1,2008-02-03T20:00:00Z,30.2513,-88.0778,6.051,25.29,1111122 
DISL,ioos:station:DISL:DISL:1,2008-02-03T20:30:00Z,30.2513,-88.0778,6.18,24.94,1111122 
DISL,ioos:station:DISL:DISL:1,2008-02-03T21:00:00Z,30.2513,-88.0778,6.306,25.16,1111122 
DISL,ioos:station:DISL:DISL:1,2008-02-03T21:30:00Z,30.2513,-88.0778,6.427,24.72,1111122 
DISL,ioos:station:DISL:DISL:1,2008-02-03T22:00:00Z,30.2513,-88.0778,6.507,25.03,1111122 
DISL,ioos:station:DISL:DISL:1,2008-02-03T22:30:00Z,30.2513,-88.0778,6.611,25.67,1111122 
DISL,ioos:station:DISL:DISL:1,2008-02-03T23:00:00Z,30.2513,-88.0778,6.697,27.26,1111122 
DISL,ioos:station:DISL:DISL:1,2008-02-03T23:30:00Z,30.2513,-88.0778,6.824,27.3,1111122 
DISL,ioos:station:DISL:DISL:1,2008-02-04T00:00:00Z,30.2513,-88.0778,6.924,26.56,1111122 
DISL,ioos:station:DISL:DISL:1,2008-02-04T00:30:00Z,30.2513,-88.0778,6.942,27.14,1111122 
DISL,ioos:station:DISL:DISL:1,2008-02-04T01:00:00Z,30.2513,-88.0778,6.938,29.47,1111122 
DISL,ioos:station:DISL:DISL:1,2008-02-04T01:30:00Z,30.2513,-88.0778,6.948,28.36,1111122 
DISL,ioos:station:DISL:DISL:1,2008-02-04T02:00:00Z,30.2513,-88.0778,6.962,24.74,1111122 
DISL,ioos:station:DISL:DISL:1,2008-02-04T02:30:00Z,30.2513,-88.0778,6.883,21.97,1111122 
DISL,ioos:station:DISL:DISL:1,2008-02-04T03:00:00Z,30.2513,-88.0778,6.822,21.95,1111122 
DISL,ioos:station:DISL:DISL:1,2008-02-04T03:30:00Z,30.2513,-88.0778,6.787,22.23,1111122 
DISL,ioos:station:DISL:DISL:1,2008-02-04T04:00:00Z,30.2513,-88.0778,6.732,22.34,1111122 
DISL,ioos:station:DISL:DISL:1,2008-02-04T04:30:00Z,30.2513,-88.0778,6.633,22.02,1111122 
DISL,ioos:station:DISL:DISL:1,2008-02-04T05:00:00Z,30.2513,-88.0778,6.54,22.09,1111122 
DISL,ioos:station:DISL:DISL:1,2008-02-04T05:30:00Z,30.2513,-88.0778,6.41,22.47,1111122 
DISL,ioos:station:DISL:DISL:1,2008-02-04T06:00:00Z,30.2513,-88.0778,6.317,22.95,1111122 
DISL,ioos:station:DISL:DISL:1,2008-02-04T06:30:00Z,30.2513,-88.0778,6.223,23.98,1111122 
DISL,ioos:station:DISL:DISL:1,2008-02-04T07:00:00Z,30.2513,-88.0778,6.114,24.83,1111122 
DISL,ioos:station:DISL:DISL:1,2008-02-04T07:30:00Z,30.2513,-88.0778,6.009,25.26,1111122 
DISL,ioos:station:DISL:DISL:1,2008-02-04T08:00:00Z,30.2513,-88.0778,5.887,25.09,1111122 
DISL,ioos:station:DISL:DISL:1,2008-02-04T08:30:00Z,30.2513,-88.0778,5.799,24.98,1111122 
DISL,ioos:station:DISL:DISL:1,2008-02-04T09:00:00Z,30.2513,-88.0778,5.691,24.91,1111122 
DISL,ioos:station:DISL:DISL:1,2008-02-04T09:30:00Z,30.2513,-88.0778,5.607,24.8,1111122 
DISL,ioos:station:DISL:DISL:1,2008-02-04T10:00:00Z,30.2513,-88.0778,5.521,24.64,1111122 
DISL,ioos:station:DISL:DISL:1,2008-02-04T10:30:00Z,30.2513,-88.0778,5.441,24.35,1111122 
DISL,ioos:station:DISL:DISL:1,2008-02-04T11:00:00Z,30.2513,-88.0778,5.381,23.8,1111122 
DISL,ioos:station:DISL:DISL:1,2008-02-04T11:30:00Z,30.2513,-88.0778,5.302,23.26,1111122 
DISL,ioos:station:DISL:DISL:1,2008-02-04T12:00:00Z,30.2513,-88.0778,5.247,22.32,1111122 
DISL,ioos:station:DISL:DISL:1,2008-02-04T12:30:00Z,30.2513,-88.0778,5.203,21.71,1111122 
DISL,ioos:station:DISL:DISL:1,2008-02-04T13:00:00Z,30.2513,-88.0778,5.173,21.27,1111122 
DISL,ioos:station:DISL:DISL:1,2008-02-04T13:30:00Z,30.2513,-88.0778,5.18,20.47,1111122 
DISL,ioos:station:DISL:DISL:1,2008-02-04T14:00:00Z,30.2513,-88.0778,5.195,20.29,1111122 
DISL,ioos:station:DISL:DISL:1,2008-02-04T14:30:00Z,30.2513,-88.0778,5.24,20.92,1111122 
DISL,ioos:station:DISL:DISL:1,2008-02-04T15:00:00Z,30.2513,-88.0778,5.248,22.05,1111122 
DISL,ioos:station:DISL:DISL:1,2008-02-04T15:30:00Z,30.2513,-88.0778,5.309,21.94,1111122 
DISL,ioos:station:DISL:DISL:1,2008-02-04T16:00:00Z,30.2513,-88.0778,5.342,22.11,1111122 
DISL,ioos:station:DISL:DISL:1,2008-02-04T16:30:00Z,30.2513,-88.0778,5.439,23.25,1111122 
DISL,ioos:station:DISL:DISL:1,2008-02-04T17:00:00Z,30.2513,-88.0778,5.506,23.87,1111122 
DISL,ioos:station:DISL:DISL:1,2008-02-04T17:30:00Z,30.2513,-88.0778,5.529,24.12,1111122 
DISL,ioos:station:DISL:DISL:1,2008-02-04T18:00:00Z,30.2513,-88.0778,5.644,24.02,1111122 
DISL,ioos:station:DISL:DISL:1,2008-02-04T18:30:00Z,30.2513,-88.0778,5.712,24.08,1111122 
DISL,ioos:station:DISL:DISL:1,2008-02-04T19:00:00Z,30.2513,-88.0778,5.802,23.86,1111122 
DISL,ioos:station:DISL:DISL:1,2008-02-04T19:30:00Z,30.2513,-88.0778,5.905,23.1,1111122 
DISL,ioos:station:DISL:DISL:1,2008-02-04T20:00:00Z,30.2513,-88.0778,6.001,23.49,1111122 
DISL,ioos:station:DISL:DISL:1,2008-02-04T20:30:00Z,30.2513,-88.0778,6.119,26.65,1111122 
DISL,ioos:station:DISL:DISL:1,2008-02-04T21:00:00Z,30.2513,-88.0778,6.22,27.45,1111122 
DISL,ioos:station:DISL:DISL:1,2008-02-04T21:30:00Z,30.2513,-88.0778,6.305,27.54,1111122 
DISL,ioos:station:DISL:DISL:1,2008-02-04T22:00:00Z,30.2513,-88.0778,6.441,27.5,1111122 
DISL,ioos:station:DISL:DISL:1,2008-02-04T22:30:00Z,30.2513,-88.0778,6.555,27.6,1111122 
DISL,ioos:station:DISL:DISL:1,2008-02-04T23:00:00Z,30.2513,-88.0778,6.647,27.04,1111122 
DISL,ioos:station:DISL:DISL:1,2008-02-04T23:30:00Z,30.2513,-88.0778,6.76,26.73,1111122 
DISL,ioos:station:DISL:DISL:1,2008-02-05T00:00:00Z,30.2513,-88.0778,6.85,25.71,1111122 
DISL,ioos:station:DISL:DISL:1,2008-02-05T00:30:00Z,30.2513,-88.0778,6.961,26.39,1111122 
DISL,ioos:station:DISL:DISL:1,2008-02-05T01:00:00Z,30.2513,-88.0778,7.03,26.8,1111122 
DISL,ioos:station:DISL:DISL:1,2008-02-05T01:30:00Z,30.2513,-88.0778,7.08,28.3,1111122 
DISL,ioos:station:DISL:DISL:1,2008-02-05T02:00:00Z,30.2513,-88.0778,7.13,28.99,1111122 
DISL,ioos:station:DISL:DISL:1,2008-02-05T02:30:00Z,30.2513,-88.0778,7.18,28.9,1111122 
DISL,ioos:station:DISL:DISL:1,2008-02-05T03:00:00Z,30.2513,-88.0778,7.19,28.72,1111122 
DISL,ioos:station:DISL:DISL:1,2008-02-05T03:30:00Z,30.2513,-88.0778,7.19,28.25,1111122 
DISL,ioos:station:DISL:DISL:1,2008-02-05T04:00:00Z,30.2513,-88.0778,7.12,26.51,1111122 
DISL,ioos:station:DISL:DISL:1,2008-02-05T04:30:00Z,30.2513,-88.0778,7.05,25.03,1111122 
DISL,ioos:station:DISL:DISL:1,2008-02-05T05:00:00Z,30.2513,-88.0778,6.997,25.04,1111122 
DISL,ioos:station:DISL:DISL:1,2008-02-05T05:30:00Z,30.2513,-88.0778,6.901,24.87,1111122 
DISL,ioos:station:DISL:DISL:1,2008-02-05T06:00:00Z,30.2513,-88.0778,6.75,24.26,1111122 
DISL,ioos:station:DISL:DISL:1,2008-02-05T06:30:00Z,30.2513,-88.0778,6.639,23.85,1111122 
DISL,ioos:station:DISL:DISL:1,2008-02-05T07:00:00Z,30.2513,-88.0778,6.527,23.48,1111122 
DISL,ioos:station:DISL:DISL:1,2008-02-05T07:30:00Z,30.2513,-88.0778,6.437,23.49,1111122 
DISL,ioos:station:DISL:DISL:1,2008-02-05T08:00:00Z,30.2513,-88.0778,6.314,24.0,1111122 
DISL,ioos:station:DISL:DISL:1,2008-02-05T08:30:00Z,30.2513,-88.0778,6.233,24.31,1111122 
DISL,ioos:station:DISL:DISL:1,2008-02-05T09:00:00Z,30.2513,-88.0778,6.131,24.11,1111122 
DISL,ioos:station:DISL:DISL:1,2008-02-05T09:30:00Z,30.2513,-88.0778,6.036,24.13,1111122 
DISL,ioos:station:DISL:DISL:1,2008-02-05T10:00:00Z,30.2513,-88.0778,5.929,24.08,1111122 
DISL,ioos:station:DISL:DISL:1,2008-02-05T10:30:00Z,30.2513,-88.0778,5.82,23.62,1111122 
DISL,ioos:station:DISL:DISL:1,2008-02-05T11:00:00Z,30.2513,-88.0778,5.728,23.33,1111122 
DISL,ioos:station:DISL:DISL:1,2008-02-05T11:30:00Z,30.2513,-88.0778,5.656,22.69,1111122 
DISL,ioos:station:DISL:DISL:1,2008-02-05T12:00:00Z,30.2513,-88.0778,5.574,22.42,1111122 
DISL,ioos:station:DISL:DISL:1,2008-02-05T12:30:00Z,30.2513,-88.0778,5.488,22.54,1111122 
DISL,ioos:station:DISL:DISL:1,2008-02-05T13:00:00Z,30.2513,-88.0778,5.427,22.98,1111122 
DISL,ioos:station:DISL:DISL:1,2008-02-05T13:30:00Z,30.2513,-88.0778,5.419,22.43,1111122 
DISL,ioos:station:DISL:DISL:1,2008-02-05T14:00:00Z,30.2513,-88.0778,5.386,21.83,1111122 
DISL,ioos:station:DISL:DISL:1,2008-02-05T14:30:00Z,30.2513,-88.0778,5.395,21.19,1111122 
DISL,ioos:station:DISL:DISL:1,2008-02-05T15:00:00Z,30.2513,-88.0778,5.376,20.3,1111122 
DISL,ioos:station:DISL:DISL:1,2008-02-05T15:30:00Z,30.2513,-88.0778,5.412,20.63,1111122 
DISL,ioos:station:DISL:DISL:1,2008-02-05T16:00:00Z,30.2513,-88.0778,5.42,20.98,1111122 
DISL,ioos:station:DISL:DISL:1,2008-02-05T16:30:00Z,30.2513,-88.0778,5.45,23.87,1111122 
DISL,ioos:station:DISL:DISL:1,2008-02-05T17:00:00Z,30.2513,-88.0778,5.455,24.22,1111122 
DISL,ioos:station:DISL:DISL:1,2008-02-05T17:30:00Z,30.2513,-88.0778,5.504,24.5,1111122 
DISL,ioos:station:DISL:DISL:1,2008-02-05T18:00:00Z,30.2513,-88.0778,5.559,23.83,1111122 
DISL,ioos:station:DISL:DISL:1,2008-02-05T18:30:00Z,30.2513,-88.0778,5.616,23.55,1111122 
DISL,ioos:station:DISL:DISL:1,2008-02-05T19:00:00Z,30.2513,-88.0778,5.691,23.83,1111122 
DISL,ioos:station:DISL:DISL:1,2008-02-05T19:30:00Z,30.2513,-88.0778,5.738,23.95,1111122 
DISL,ioos:station:DISL:DISL:1,2008-02-05T20:00:00Z,30.2513,-88.0778,5.832,23.94,1111122 
DISL,ioos:station:DISL:DISL:1,2008-02-05T20:30:00Z,30.2513,-88.0778,5.927,23.97,1111122 
DISL,ioos:station:DISL:DISL:1,2008-02-05T21:00:00Z,30.2513,-88.0778,6.077,23.98,1111122 
DISL,ioos:station:DISL:DISL:1,2008-02-05T21:30:00Z,30.2513,-88.0778,6.165,24.27,1111122 
DISL,ioos:station:DISL:DISL:1,2008-02-05T22:00:00Z,30.2513,-88.0778,6.308,24.45,1111122 
DISL,ioos:station:DISL:DISL:1,2008-02-05T22:30:00Z,30.2513,-88.0778,6.386,26.24,1111122 
DISL,ioos:station:DISL:DISL:1,2008-02-05T23:00:00Z,30.2513,-88.0778,6.459,26.64,1111122 
DISL,ioos:station:DISL:DISL:1,2008-02-05T23:30:00Z,30.2513,-88.0778,6.608,25.28,1111122 
DISL,ioos:station:DISL:DISL:1,2008-02-06T00:00:00Z,30.2513,-88.0778,6.716,25.14,1111122 
DISL,ioos:station:DISL:DISL:1,2008-02-06T00:30:00Z,30.2513,-88.0778,6.904,25.07,1111122 
DISL,ioos:station:DISL:DISL:1,2008-02-06T01:00:00Z,30.2513,-88.0778,6.988,26.24,1111122 
DISL,ioos:station:DISL:DISL:1,2008-02-06T01:30:00Z,30.2513,-88.0778,7.08,23.91,1111122 
DISL,ioos:station:DISL:DISL:1,2008-02-06T02:00:00Z,30.2513,-88.0778,6.954,24.68,1111122 
DISL,ioos:station:DISL:DISL:1,2008-02-06T02:30:00Z,30.2513,-88.0778,7.21,24.83,1111122 
DISL,ioos:station:DISL:DISL:1,2008-02-06T03:00:00Z,30.2513,-88.0778,7.28,25.65,1111122 
DISL,ioos:station:DISL:DISL:1,2008-02-06T03:30:00Z,30.2513,-88.0778,7.29,26.38,1111122 
DISL,ioos:station:DISL:DISL:1,2008-02-06T04:00:00Z,30.2513,-88.0778,7.31,27.29,1111122 
DISL,ioos:station:DISL:DISL:1,2008-02-06T04:30:00Z,30.2513,-88.0778,7.3,27.62,1111122 
DISL,ioos:station:DISL:DISL:1,2008-02-06T05:00:00Z,30.2513,-88.0778,7.21,27.24,1111122 
DISL,ioos:station:DISL:DISL:1,2008-02-06T05:30:00Z,30.2513,-88.0778,7.25,26.27,1111122 
DISL,ioos:station:DISL:DISL:1,2008-02-06T06:00:00Z,30.2513,-88.0778,7.15,26.95,1111122 
DISL,ioos:station:DISL:DISL:1,2008-02-06T06:30:00Z,30.2513,-88.0778,7.13,27.11,1111122 
DISL,ioos:station:DISL:DISL:1,2008-02-06T07:00:00Z,30.2513,-88.0778,7.02,26.93,1111122 
DISL,ioos:station:DISL:DISL:1,2008-02-06T07:30:00Z,30.2513,-88.0778,6.926,27.15,1111122 
DISL,ioos:station:DISL:DISL:1,2008-02-06T08:00:00Z,30.2513,-88.0778,6.837,27.51,1111122 
DISL,ioos:station:DISL:DISL:1,2008-02-06T08:30:00Z,30.2513,-88.0778,6.744,27.46,1111122 
DISL,ioos:station:DISL:DISL:1,2008-02-06T09:00:00Z,30.2513,-88.0778,6.651,28.31,1111122 
DISL,ioos:station:DISL:DISL:1,2008-02-06T09:30:00Z,30.2513,-88.0778,6.573,28.9,1111122 
DISL,ioos:station:DISL:DISL:1,2008-02-06T10:00:00Z,30.2513,-88.0778,6.434,28.24,1111122 
DISL,ioos:station:DISL:DISL:1,2008-02-06T10:30:00Z,30.2513,-88.0778,6.311,28.09,1111122 
DISL,ioos:station:DISL:DISL:1,2008-02-06T11:00:00Z,30.2513,-88.0778,6.255,27.94,1111122 
DISL,ioos:station:DISL:DISL:1,2008-02-06T11:30:00Z,30.2513,-88.0778,6.201,28.38,1111122 
DISL,ioos:station:DISL:DISL:1,2008-02-06T12:00:00Z,30.2513,-88.0778,6.143,29.18,1111122 
DISL,ioos:station:DISL:DISL:1,2008-02-06T12:30:00Z,30.2513,-88.0778,6.081,29.37,1111122 
DISL,ioos:station:DISL:DISL:1,2008-02-06T13:00:00Z,30.2513,-88.0778,6.129,29.35,1111122 
DISL,ioos:station:DISL:DISL:1,2008-02-06T13:30:00Z,30.2513,-88.0778,6.131,29.21,1111122 
DISL,ioos:station:DISL:DISL:1,2008-02-06T14:00:00Z,30.2513,-88.0778,6.069,29.07,1111122 